W4KAB Weather Reports


time (UTC)temp
F
wind
direction
speed
knots
gust
knots
rain 1hr
in
rain 24hr
in
rain mn
in
humidity
%
barometer
mb
20260510234826 76 235 0.0 0.0 0.00 0.00 0.00 48 1016.7
20260510234324 76 256 0.0 0.0 0.00 0.00 0.00 47 1016.7
20260510233819 76 203 0.0 0.0 0.00 0.00 0.00 47 1016.4
20260510233316 76 95 0.0 0.0 0.00 0.00 0.00 48 1016.2
20260510232812 77 65 0.0 0.0 0.00 0.00 0.00 47 1016.3
20260510232308 78 134 0.0 0.0 0.00 0.00 0.00 45 1016.2
20260510231805 78 236 0.0 0.0 0.00 0.00 0.00 45 1016.3
20260510231302 78 281 0.0 0.0 0.00 0.00 0.00 43 1016.3
20260510230759 79 248 0.0 0.0 0.00 0.00 0.00 43 1016.1
20260510230254 80 336 0.0 0.0 0.00 0.00 0.00 43 1016.1
20260510225751 80 254 0.0 0.0 0.00 0.00 0.00 42 1016.1
20260510225247 80 248 0.0 0.0 0.00 0.00 0.00 41 1015.9
20260510224743 81 165 0.0 0.0 0.00 0.00 0.00 39 1016.1
20260510224239 81 260 0.0 0.0 0.00 0.00 0.00 38 1015.7
20260510223737 82 258 0.0 0.9 0.00 0.00 0.00 37 1015.9
20260510223234 82 276 0.0 0.0 0.00 0.00 0.00 32 1015.9
20260510222731 82 253 0.0 0.0 0.00 0.00 0.00 35 1016.1
20260510222228 82 224 0.0 0.0 0.00 0.00 0.00 35 1015.8
20260510221723 82 265 0.0 0.9 0.00 0.00 0.00 33 1015.8
20260510221220 82 267 0.9 1.7 0.00 0.00 0.00 32 1015.8
20260510220717 82 239 1.7 1.7 0.00 0.00 0.00 33 1015.8
20260510220212 83 285 0.9 0.9 0.00 0.00 0.00 32 1015.7
20260510215709 84 301 1.7 2.6 0.00 0.00 0.00 31 1016.0
20260510215208 83 260 0.0 0.9 0.00 0.00 0.00 32 1015.7
20260510214704 83 249 0.0 0.0 0.00 0.00 0.00 33 1015.9
20260510214201 84 240 1.7 1.7 0.00 0.00 0.00 30 1015.7
20260510213658 84 260 0.9 0.9 0.00 0.00 0.00 31 1015.8
20260510213154 85 273 0.0 0.9 0.00 0.00 0.00 30 1015.8
20260510212650 84 265 0.9 0.9 0.00 0.00 0.00 33 1015.8
20260510212148 83 283 0.9 0.9 0.00 0.00 0.00 32 1015.8
20260510211644 82 264 0.9 0.9 0.00 0.00 0.00 33 1016.0
20260510211139 81 184 0.0 0.0 0.00 0.00 0.00 34 1015.7
20260510210636 82 67 1.7 1.7 0.00 0.00 0.00 34 1016.1
20260510210131 83 236 0.0 0.0 0.00 0.00 0.00 32 1016.0
20260510205630 83 229 1.7 1.7 0.00 0.00 0.00 35 1016.2
20260510205126 81 238 0.0 0.0 0.00 0.00 0.00 34 1015.9
20260510204623 81 53 0.9 0.9 0.00 0.00 0.00 40 1015.8
20260510204120 82 34 0.9 0.9 0.00 0.00 0.00 38 1015.8
20260510203616 81 259 0.9 0.9 0.00 0.00 0.00 35 1016.2
20260510203114 81 264 0.0 0.0 0.00 0.00 0.00 37 1016.1
20260510202613 81 189 0.0 0.0 0.00 0.00 0.00 40 1016.2
20260510202109 83 297 0.0 0.9 0.00 0.00 0.00 37 1016.1
20260510201606 83 314 0.9 0.9 0.00 0.00 0.00 30 1016.2
20260510201103 85 285 0.9 1.7 0.00 0.00 0.00 31 1016.2
20260510200559 86 255 0.9 0.9 0.00 0.00 0.00 29 1016.1
20260510200057 86 270 0.0 0.0 0.00 0.00 0.00 33 1016.2
20260510195554 85 335 0.9 0.9 0.00 0.00 0.00 32 1016.1
20260510195050 84 273 0.0 0.0 0.00 0.00 0.00 31 1016.3
20260510194545 85 249 0.9 1.7 0.00 0.00 0.00 31 1016.7
20260510194041 85 245 1.7 1.7 0.00 0.00 0.00 30 1016.8
20260510193536 86 247 0.9 1.7 0.00 0.00 0.00 29 1016.6
20260510193032 86 253 0.9 0.9 0.00 0.00 0.00 30 1016.6
20260510192532 86 348 0.0 0.9 0.00 0.00 0.00 29 1016.8
20260510192028 85 291 0.9 0.9 0.00 0.00 0.00 28 1016.8
20260510191525 84 279 0.0 0.0 0.00 0.00 0.00 33 1016.9
20260510191022 84 317 0.9 0.9 0.00 0.00 0.00 35 1016.8
20260510190519 84 237 2.6 4.3 0.00 0.00 0.00 31 1017.0
20260510190016 84 245 2.6 2.6 0.00 0.00 0.00 32 1017.1
20260510185513 85 267 1.7 1.7 0.00 0.00 0.00 31 1016.8
20260510185010 84 236 0.0 0.9 0.00 0.00 0.00 28 1016.6
20260510184508 84 244 2.6 2.6 0.00 0.00 0.00 28 1016.9
20260510184003 85 291 0.9 0.9 0.00 0.00 0.00 31 1016.9
20260510183458 86 287 0.0 0.9 0.00 0.00 0.00 34 1016.9
20260510182954 86 307 0.0 0.0 0.00 0.00 0.00 30 1016.9
20260510182450 85 328 0.9 0.9 0.00 0.00 0.00 31 1016.9
20260510181945 84 19 0.0 0.9 0.00 0.00 0.00 31 1017.1
20260510181444 83 253 0.9 1.7 0.00 0.00 0.00 32 1017.3
20260510180939 83 289 0.9 0.9 0.00 0.00 0.00 32 1017.2
20260510180437 83 293 0.0 0.0 0.00 0.00 0.00 32 1017.5
20260510175934 83 274 0.9 0.9 0.00 0.00 0.00 32 1017.4
20260510175430 83 199 0.9 0.9 0.00 0.00 0.00 30 1017.3
20260510174925 83 294 0.9 1.7 0.00 0.00 0.00 33 1017.5
20260510174424 83 234 2.6 2.6 0.00 0.00 0.00 32 1017.6
20260510173920 83 254 2.6 2.6 0.00 0.00 0.00 30 1017.6
20260510173415 83 232 2.6 2.6 0.00 0.00 0.00 30 1017.5
20260510172912 83 246 0.0 0.9 0.00 0.00 0.00 31 1017.6
20260510172408 82 234 1.7 1.7 0.00 0.00 0.00 29 1017.3
20260510171904 83 224 0.0 0.9 0.00 0.00 0.00 28 1017.7
20260510171402 81 295 0.9 0.9 0.00 0.00 0.00 31 1017.8
20260510170859 82 59 1.7 1.7 0.00 0.00 0.00 30 1017.7
20260510170355 84 249 0.9 0.9 0.00 0.00 0.00 34 1017.8
20260510165850 82 225 0.0 0.0 0.00 0.00 0.00 31 1017.8
20260510165347 82 211 0.0 0.0 0.00 0.00 0.00 35 1017.7
20260510164844 82 220 0.0 0.0 0.00 0.00 0.00 25 1017.8
20260510164342 83 240 0.9 0.9 0.00 0.00 0.00 33 1017.8
20260510163841 82 273 0.0 0.9 0.00 0.00 0.00 30 1017.7
20260510163338 83 269 0.9 1.7 0.00 0.00 0.00 32 1017.8
20260510162831 82 149 0.0 0.0 0.00 0.00 0.00 31 1017.8
20260510162324 80 224 0.0 0.0 0.00 0.00 0.00 31 1018.3
20260510161819 80 234 0.9 0.9 0.00 0.00 0.00 35 1018.1
20260510161315 79 205 0.0 0.0 0.00 0.00 0.00 39 1018.3
20260510160812 79 206 0.0 0.0 0.00 0.00 0.00 37 1018.3
20260510160308 78 204 0.0 0.0 0.00 0.00 0.00 39 1018.3
20260510155803 78 212 0.0 0.0 0.00 0.00 0.00 37 1018.4
20260510155300 80 203 0.9 0.9 0.00 0.00 0.00 42 1018.3
20260510154756 80 190 0.0 0.0 0.00 0.00 0.00 42 1018.2
20260510154252 78 177 0.0 0.0 0.00 0.00 0.00 43 1018.4
20260510153746 77 194 0.9 0.9 0.00 0.00 0.00 45 1018.4
20260510153243 78 223 0.0 0.0 0.00 0.00 0.00 42 1018.2
20260510152740 76 253 0.0 0.0 0.00 0.00 0.00 44 1018.3
20260510152236 76 198 0.0 0.0 0.00 0.00 0.00 47 1018.3
20260510151733 75 192 0.0 0.0 0.00 0.00 0.00 46 1018.5
20260510151232 74 212 1.7 2.6 0.00 0.00 0.00 53 1018.4
20260510150727 73 237 0.0 0.0 0.00 0.00 0.00 48 1018.4
20260510150222 72 220 1.7 1.7 0.00 0.00 0.00 48 1018.6
20260510145719 72 277 0.0 0.0 0.00 0.00 0.00 52 1018.4
20260510145215 71 285 0.0 0.0 0.00 0.00 0.00 51 1018.8
20260510144711 71 254 0.0 0.0 0.00 0.00 0.00 52 1018.4
20260510144208 70 284 0.0 0.0 0.00 0.00 0.00 49 1018.2
20260510143703 70 228 1.7 1.7 0.00 0.00 0.00 49 1018.6
20260510143200 70 271 0.0 0.0 0.00 0.00 0.00 55 1018.4
20260510142656 69 272 0.0 0.0 0.00 0.00 0.00 58 1018.5
20260510142153 68 310 0.0 0.0 0.00 0.00 0.00 62 1018.4
20260510141650 68 270 0.0 0.0 0.00 0.00 0.00 63 1018.5
20260510141148 68 208 0.9 0.9 0.00 0.00 0.00 53 1018.4
20260510140644 67 236 0.0 0.0 0.00 0.00 0.00 57 1018.4
20260510140143 67 228 0.0 0.0 0.00 0.00 0.00 60 1018.5
20260510135639 67 230 0.0 0.0 0.00 0.00 0.00 60 1018.6
20260510135135 66 262 0.0 0.0 0.00 0.00 0.00 60 1018.6
20260510134632 66 247 0.0 0.0 0.00 0.00 0.00 63 1018.5
20260510134129 65 223 0.0 0.0 0.00 0.00 0.00 66 1018.6
20260510133626 65 256 0.0 0.0 0.00 0.00 0.00 70 1018.6
20260510133121 64 245 0.0 0.0 0.00 0.00 0.00 67 1018.6
20260510132618 63 258 0.0 0.0 0.00 0.00 0.00 73 1018.6
20260510132115 63 256 0.0 0.0 0.00 0.00 0.00 79 1018.5
20260510131613 62 241 0.0 0.0 0.00 0.00 0.00 81 1018.5
20260510131110 62 248 0.0 0.0 0.00 0.00 0.00 82 1018.7
20260510130606 61 254 0.0 0.0 0.00 0.00 0.00 82 1018.6
20260510130104 60 251 0.0 0.0 0.00 0.00 0.00 89 1018.3
20260510125600 60 239 0.0 0.0 0.00 0.00 0.00 90 1018.3
20260510125056 59 255 0.0 0.0 0.00 0.00 0.00 91 1018.2
20260510124553 59 251 0.0 0.0 0.00 0.00 0.00 92 1018.3
20260510124050 58 250 0.0 0.0 0.00 0.00 0.00 93 1018.2
20260510123545 57 257 0.0 0.0 0.00 0.00 0.00 94 1018.3
20260510123041 56 233 0.0 0.0 0.00 0.00 0.00 95 1018.2
20260510122537 56 246 0.0 0.0 0.00 0.00 0.00 95 1018.2
20260510122033 55 262 0.0 0.0 0.00 0.00 0.00 97 1018.2
20260510121531 55 256 0.0 0.0 0.00 0.00 0.00 97 1018.0
20260510121028 54 229 0.0 0.0 0.00 0.00 0.00 98 1018.1
20260510120526 54 257 0.0 0.0 0.00 0.00 0.00 98 1017.9
20260510120021 54 266 0.0 0.0 0.00 0.00 0.00 99 1017.9
20260510115518 53 256 0.0 0.0 0.00 0.00 0.00 99 1017.8
20260510115015 53 230 0.0 0.0 0.00 0.00 0.00 99 1017.7
20260510114511 53 275 0.0 0.0 0.00 0.00 0.00 99 1017.7
20260510114007 52 243 0.0 0.0 0.00 0.00 0.00 99 1017.6
20260510113502 52 250 0.0 0.0 0.00 0.00 0.00 99 1017.2
20260510113000 52 259 0.0 0.0 0.00 0.00 0.00 99 1017.2
20260510112457 52 251 0.0 0.0 0.00 0.00 0.00 99 1017.0
20260510111953 52 250 0.0 0.0 0.00 0.00 0.00 99 1016.9
20260510111449 52 248 0.0 0.0 0.00 0.00 0.00 99 1016.8
20260510110945 52 258 0.0 0.0 0.00 0.00 0.00 99 1016.9
20260510110442 52 263 0.0 0.0 0.00 0.00 0.00 99 1016.8
20260510105938 51 249 0.0 0.0 0.00 0.00 0.00 99 1016.8
20260510105433 51 248 0.0 0.0 0.00 0.00 0.00 99 1016.8
20260510104929 51 240 0.0 0.0 0.00 0.00 0.00 99 1016.7
20260510104426 51 256 0.0 0.0 0.00 0.00 0.00 99 1016.7
20260510103922 51 253 0.0 0.0 0.00 0.00 0.00 99 1016.6
20260510103420 51 258 0.0 0.0 0.00 0.00 0.00 99 1016.6
20260510102914 51 266 0.0 0.0 0.00 0.00 0.00 99 1016.4
20260510102410 51 255 0.0 0.0 0.00 0.00 0.00 99 1016.2
20260510101902 51 248 0.0 0.0 0.00 0.00 0.00 99 1016.1
20260510101400 51 252 0.0 0.0 0.00 0.00 0.00 99 1015.8
20260510100857 51 259 0.0 0.0 0.00 0.00 0.00 99 1016.0
20260510100354 51 262 0.0 0.0 0.00 0.00 0.00 99 1016.0
20260510095850 52 258 0.0 0.0 0.00 0.00 0.00 99 1015.8
20260510095345 52 264 0.0 0.0 0.00 0.00 0.00 99 1015.8
20260510094845 52 259 0.0 0.0 0.00 0.00 0.00 99 1015.7
20260510094340 52 248 0.0 0.0 0.00 0.00 0.00 99 1015.6
20260510093837 52 256 0.0 0.0 0.00 0.00 0.00 99 1015.8
20260510093332 53 249 0.0 0.0 0.00 0.00 0.00 99 1015.6
20260510092829 53 253 0.0 0.0 0.00 0.00 0.00 99 1015.5
20260510092324 53 257 0.0 0.0 0.00 0.00 0.00 99 1015.6
20260510091821 53 250 0.0 0.0 0.00 0.00 0.00 99 1015.5
20260510091318 53 250 0.0 0.0 0.00 0.00 0.00 99 1015.6
20260510090814 53 259 0.0 0.0 0.00 0.00 0.00 99 1015.5
20260510090311 53 254 0.0 0.0 0.00 0.00 0.00 99 1015.4
20260510085807 53 251 0.0 0.0 0.00 0.00 0.00 99 1015.2
20260510085301 54 252 0.0 0.9 0.00 0.00 0.00 99 1015.4
20260510084757 54 237 0.0 0.0 0.00 0.00 0.00 99 1015.5
20260510084254 54 251 0.0 0.0 0.00 0.00 0.00 99 1015.3
20260510083751 53 256 0.0 0.0 0.00 0.00 0.00 99 1015.3
20260510083248 54 263 0.0 0.0 0.00 0.00 0.00 99 1015.2
20260510082743 54 251 0.0 0.0 0.00 0.00 0.00 99 1015.0
20260510082240 54 247 0.0 0.0 0.00 0.00 0.00 99 1015.1
20260510081739 54 259 0.0 0.0 0.00 0.00 0.00 99 1015.0
20260510081235 54 253 0.0 0.0 0.00 0.00 0.00 99 1015.0
20260510080731 55 261 0.0 0.0 0.00 0.00 0.00 99 1014.9
20260510080227 55 259 0.0 0.0 0.00 0.00 0.00 99 1014.8
20260510075723 55 259 0.0 0.0 0.00 0.00 0.00 99 1014.8
20260510075221 55 260 0.0 0.0 0.00 0.00 0.00 99 1014.7
20260510074718 56 258 0.0 0.0 0.00 0.00 0.00 99 1014.5
20260510074214 56 258 0.0 0.0 0.00 0.00 0.00 99 1014.5
20260510073711 56 258 0.0 0.0 0.00 0.00 0.00 99 1014.5
20260510073207 56 258 0.0 0.0 0.00 0.00 0.00 99 1014.7
20260510072703 56 259 0.0 0.0 0.00 0.00 0.00 99 1014.6
20260510072200 56 258 0.0 0.0 0.00 0.00 0.00 99 1014.7
20260510071656 56 275 0.0 0.0 0.00 0.00 0.00 99 1014.3
20260510071153 57 307 0.0 0.0 0.00 0.00 0.00 99 1014.5
20260510070650 57 260 0.0 0.0 0.00 0.00 0.00 99 1014.6
20260510070148 57 253 0.0 0.0 0.00 0.00 0.00 99 1014.5
20260510065643 57 257 0.0 0.0 0.00 0.00 0.00 99 1014.9
20260510065139 57 263 0.0 0.0 0.00 0.00 0.00 99 1014.4
20260510064636 57 265 0.0 0.0 0.00 0.00 0.00 99 1014.8
20260510064133 58 262 0.0 0.0 0.00 0.00 0.00 99 1014.7
20260510063630 58 265 0.0 0.0 0.00 0.00 0.00 99 1014.6
20260510063127 58 262 0.0 0.0 0.00 0.00 0.00 98 1014.8
20260510062623 58 262 0.0 0.0 0.00 0.00 0.00 98 1014.7
20260510062118 58 262 0.0 0.0 0.00 0.00 0.00 98 1014.8
20260510061614 58 273 0.0 0.0 0.00 0.00 0.00 98 1014.8
20260510061112 58 273 0.0 0.0 0.00 0.00 0.00 98 1014.8
20260510060608 58 283 0.0 0.0 0.00 0.00 0.00 98 1014.8
20260510060105 58 297 0.0 0.0 0.00 0.00 0.00 97 1014.9
20260510055600 59 354 0.0 0.0 0.00 0.00 0.00 97 1015.0
20260510055059 59 309 0.0 0.0 0.00 0.00 0.00 97 1015.0
20260510054554 59 259 0.0 0.0 0.00 0.00 0.00 97 1015.0
20260510054050 59 265 0.0 0.0 0.00 0.00 0.00 97 1014.7
20260510053549 60 254 0.0 0.0 0.00 0.00 0.00 97 1014.7
20260510053047 60 259 0.0 0.0 0.00 0.00 0.00 96 1014.8
20260510052543 60 255 0.0 0.0 0.00 0.00 0.00 96 1014.7
20260510052039 60 271 0.0 0.0 0.00 0.00 0.00 95 1014.7
20260510051534 60 271 0.0 0.0 0.00 0.00 0.00 95 1014.8
20260510051031 60 271 0.0 0.0 0.00 0.00 0.00 94 1015.0
20260510050529 60 271 0.0 0.0 0.00 0.00 0.00 94 1015.2
20260510050026 61 266 0.0 0.0 0.00 0.00 0.00 94 1015.0
20260510045523 61 260 0.0 0.0 0.00 0.00 0.00 94 1014.9
20260510045019 61 258 0.0 0.0 0.00 0.00 0.00 94 1014.9
20260510044516 61 256 0.0 0.0 0.00 0.00 0.00 93 1014.6
20260510044013 61 258 0.0 0.0 0.00 0.00 0.00 93 1014.5
20260510043508 62 253 0.0 0.0 0.00 0.00 0.00 92 1014.7
20260510043003 62 262 0.0 0.0 0.00 0.00 0.00 92 1014.7
20260510042458 62 256 0.0 0.0 0.00 0.00 0.00 92 1015.0
20260510041953 62 253 0.0 0.0 0.00 0.00 0.00 91 1014.7
20260510041450 62 259 0.0 0.0 0.00 0.00 0.00 91 1014.9
20260510040948 62 257 0.0 0.0 0.00 0.00 0.00 91 1014.9
20260510040444 63 258 0.0 0.0 0.00 0.00 0.00 90 1014.7
20260510035940 63 258 0.0 0.0 0.00 0.00 0.00 91 1014.6
20260510035436 63 258 0.0 0.0 0.00 0.00 0.00 90 1014.5
20260510034931 63 254 0.0 0.0 0.00 0.00 0.00 90 1014.6
20260510034430 63 233 0.0 0.0 0.00 0.00 0.00 90 1014.5
20260510033926 63 262 0.0 0.0 0.00 0.00 0.00 90 1014.5
20260510033422 63 258 0.0 0.0 0.00 0.00 0.00 90 1014.7
20260510032919 63 260 0.0 0.0 0.00 0.00 0.00 90 1014.7
20260510032416 63 258 0.0 0.0 0.00 0.00 0.00 90 1014.6
20260510031911 63 271 0.0 0.0 0.00 0.00 0.00 90 1014.6
20260510031406 64 285 0.0 0.0 0.00 0.00 0.00 89 1014.6
20260510030901 64 294 0.0 0.0 0.00 0.00 0.00 87 1014.7
20260510030358 65 271 0.0 0.0 0.00 0.00 0.00 86 1014.7
20260510025855 65 261 0.0 0.0 0.00 0.00 0.00 85 1014.6
20260510025353 66 251 0.0 0.0 0.00 0.00 0.00 85 1014.8
20260510024850 66 258 0.0 0.0 0.00 0.00 0.00 84 1014.7
20260510024346 66 251 0.0 0.0 0.00 0.00 0.00 84 1014.6
20260510023842 66 261 0.0 0.0 0.00 0.00 0.00 84 1014.4
20260510023339 66 256 0.0 0.0 0.00 0.00 0.00 84 1014.4
20260510022837 66 253 0.9 0.9 0.00 0.00 0.00 85 1014.3
20260510022335 66 259 0.9 0.9 0.00 0.00 0.00 84 1014.3
20260510021834 66 268 0.0 0.0 0.00 0.00 0.00 83 1014.1
20260510021333 66 264 0.0 0.0 0.00 0.00 0.00 83 1014.2
20260510020828 66 244 0.0 0.9 0.00 0.00 0.00 83 1014.1
20260510020323 66 266 0.0 0.0 0.00 0.00 0.00 83 1014.3
20260510015819 66 261 0.9 0.9 0.00 0.00 0.00 83 1014.1
20260510015315 67 255 0.0 0.0 0.00 0.00 0.00 83 1013.8
20260510014810 67 259 0.0 0.0 0.00 0.00 0.00 82 1013.5
20260510014308 67 243 0.9 1.7 0.00 0.00 0.00 82 1013.8
20260510013804 66 254 0.0 0.9 0.00 0.00 0.00 83 1013.8
20260510013259 65 249 0.0 0.0 0.00 0.00 0.00 85 1013.9
20260510012755 65 264 0.0 0.0 0.00 0.00 0.00 86 1013.4
20260510012250 64 252 0.0 0.0 0.00 0.00 0.00 87 1013.3
20260510011749 64 285 0.0 0.0 0.00 0.00 0.00 88 1013.4
20260510011245 64 321 0.0 0.0 0.00 0.00 0.00 87 1013.2
20260510010742 64 352 0.0 0.9 0.00 0.00 0.00 87 1013.2
20260510010239 64 287 0.0 0.0 0.00 0.00 0.00 86 1013.0
20260510005736 65 310 0.0 0.0 0.00 0.00 0.00 86 1012.9
20260510005232 65 292 0.0 0.0 0.00 0.00 0.00 86 1012.8
20260510004730 65 292 0.0 0.0 0.00 0.00 0.00 85 1012.6
20260510004227 66 65 0.0 0.0 0.00 0.00 0.00 85 1012.6
20260510003725 66 65 0.0 0.0 0.00 0.00 0.00 84 1012.7
20260510003221 66 81 0.0 0.0 0.00 0.00 0.00 84 1012.4
20260510002719 66 53 0.0 0.0 0.00 0.00 0.00 84 1012.3
20260510002217 66 83 0.0 0.0 0.00 0.00 0.00 83 1012.3
20260510001714 67 84 0.0 0.9 0.00 0.00 0.00 83 1012.2
20260510001213 67 85 0.0 0.0 0.00 0.00 0.00 83 1012.0
20260510000708 68 236 0.0 0.0 0.00 0.00 0.00 82 1012.1
20260510000206 68 278 0.0 0.0 0.00 0.00 0.00 80 1011.9
20260509235702 69 264 0.0 0.0 0.00 0.00 0.00 80 1011.9
20260509235158 69 279 0.0 0.0 0.00 0.00 0.00 79 1012.0